Vorticity
9 9 9 9 9 9 10 10 10 10 9 9 9 9 10 9 9 9 9 9 8 7 7 6 6 6 7 7 7 7 6 6 5 4 4 4 5 7 8 9 9 9 9 8 8 7 6 4 3 2 2 3 3 3 4 5 8 8 7 4 5 7 9 11 13 13 13 11 8
13 13 13 13 12 12 12 12 12 11 11 11 10 10 10 10 9 9 8 8 7 6 5 5 6 6 7 7 7 6 5 5 4 4 4 5 6 7 8 9 9 9 8 8 8 7 6 4 3 2 2 3 3 3 4 5 7 7 5 3 5 8 11 12 14 14 14 11 7
16 15 15 14 14 13 13 13 12 11 11 10 10 10 9 9 8 8 7 6 5 5 5 5 5 6 6 6 7 6 5 4 4 5 5 6 7 8 9 9 9 8 7 7 7 6 5 4 3 3 3 3 3 3 4 5 6 5 4 3 7 10 12 14 15 15 14 10 6
14 14 13 13 12 12 11 11 10 10 9 8 8 8 8 8 7 6 5 4 4 5 5 5 5 6 6 6 6 5 4 4 5 6 6 7 8 8 9 9 8 8 7 7 6 6 5 4 4 4 3 3 3 3 4 5 5 3 2 4 9 12 14 15 16 16 14 9 6
10 10 10 10 10 10 9 9 9 8 7 7 6 6 6 6 6 5 4 4 5 5 5 5 5 6 7 7 6 4 4 5 6 7 7 8 8 9 9 9 8 7 7 6 6 5 5 5 5 4 3 3 3 3 4 4 3 2 2 4 10 13 15 16 17 16 13 8 5
8 8 9 9 9 9 9 10 9 8 8 7 7 7 7 7 6 6 6 6 6 6 6 7 7 8 8 8 6 5 5 6 7 8 8 8 9 9 9 8 7 7 6 6 5 5 5 5 4 4 3 3 3 3 3 3 1 1 2 6 11 15 17 18 18 16 12 7 5
8 9 9 10 11 11 11 11 11 11 10 10 10 10 10 9 9 8 8 7 8 9 9 9 9 9 9 8 7 6 7 8 8 8 8 8 9 9 8 8 7 6 6 5 5 5 5 5 4 3 3 3 3 3 2 1 -0 0 2 8 12 16 19 20 19 16 11 7 5
9 10 10 10 10 11 11 11 11 11 11 12 12 13 13 12 12 11 10 10 10 10 10 11 11 11 10 8 7 7 7 8 8 8 8 8 8 8 8 7 7 6 5 5 5 5 5 4 4 3 2 2 2 2 2 0 -1 -0 3 10 14 18 20 21 19 15 10 6 5
10 10 10 9 9 9 10 10 10 10 10 10 11 12 13 13 13 12 11 10 10 10 10 11 11 10 9 8 7 7 7 8 8 8 8 8 8 8 7 7 6 5 5 5 5 5 5 4 3 3 2 2 2 2 1 -0 -1 0 4 11 16 19 22 22 19 14 9 6 5
9 9 9 8 8 8 8 8 9 9 9 8 9 10 11 12 12 11 10 9 8 9 10 11 10 9 8 8 7 6 7 7 8 8 7 8 7 7 7 6 6 5 5 5 6 5 5 4 3 2 2 2 1 1 1 -1 -1 1 5 12 18 21 23 22 18 13 8 5 5
8 7 7 7 7 7 7 7 8 8 8 7 7 8 9 10 10 10 8 6 7 8 9 9 8 8 7 6 6 6 6 7 7 7 7 7 7 6 6 6 5 5 5 6 6 5 5 4 3 2 2 1 1 1 0 -1 -1 2 7 13 20 23 24 21 16 11 7 5 5
6 6 7 7 7 7 7 7 8 8 8 7 7 7 8 9 9 8 7 6 7 7 7 7 7 6 5 5 5 6 6 7 7 7 7 6 6 6 6 5 5 5 5 6 6 6 5 4 3 3 2 1 1 0 -0 -1 -1 2 8 15 22 25 25 20 15 10 7 5 5
6 7 7 7 7 7 7 7 7 8 8 7 7 7 8 9 9 8 8 7 7 6 6 7 6 5 4 4 5 6 7 7 7 7 7 6 6 6 5 5 5 6 6 6 6 6 5 4 4 3 2 1 0 0 -0 -1 -0 3 9 17 24 26 25 19 13 9 6 5 5
8 8 8 7 7 7 7 7 7 8 8 7 7 8 8 8 9 10 10 9 8 7 6 6 5 4 3 3 5 7 7 7 7 7 7 6 6 5 5 6 6 6 7 7 7 6 5 5 4 3 1 -0 -0 -0 -1 -1 -0 4 11 20 26 27 24 18 12 8 6 5 5
9 8 8 8 7 8 8 7 7 7 7 7 7 8 8 9 10 11 12 11 9 8 6 5 4 3 3 4 7 8 9 8 8 8 7 6 5 5 5 6 7 7 8 8 7 7 6 6 4 2 0 -1 -1 -1 -1 -1 0 6 13 23 28 27 23 16 11 7 6 5 5
8 8 8 8 8 8 8 8 8 8 8 8 8 9 10 11 12 13 13 13 10 9 7 6 4 3 3 6 9 11 11 9 9 9 8 6 5 5 5 6 7 8 8 8 8 8 8 7 3 1 -1 -2 -1 -1 -1 -1 1 7 16 26 29 27 22 15 10 7 5 5 6
9 9 9 9 9 9 8 8 8 8 8 8 9 9 10 12 13 14 15 14 11 9 8 6 4 4 5 7 11 13 13 11 11 10 9 6 5 4 5 6 7 8 9 9 10 10 9 6 2 -0 -2 -2 -1 -1 -1 -1 2 9 18 28 31 27 20 13 9 6 5 5 6
10 10 10 10 10 10 10 10 10 10 10 9 9 10 11 12 14 15 16 15 13 11 8 6 6 6 7 8 11 14 15 14 13 11 9 6 4 3 4 5 7 8 9 11 12 11 8 3 0 -2 -2 -2 -1 -0 -0 -1 3 11 21 31 31 26 19 11 8 6 5 5 6
13 13 13 13 13 12 12 12 12 12 11 11 10 10 11 12 14 16 16 16 15 13 10 7 7 7 8 10 12 15 16 16 14 12 10 6 3 2 3 4 6 8 10 14 14 11 6 1 -2 -2 -2 -1 -0 0 -0 -1 4 13 24 33 31 25 17 10 7 6 5 5 6
16 16 16 16 15 15 15 15 15 15 14 14 13 12 12 12 14 16 17 17 16 15 12 10 7 7 8 10 13 15 17 18 16 13 10 7 3 1 1 3 5 9 13 17 14 8 3 -1 -2 -2 -2 -1 0 0 0 -0 6 16 27 35 30 23 15 9 6 5 5 6 7
19 18 18 18 18 18 18 18 18 19 18 18 17 16 15 13 14 15 16 17 17 16 14 10 7 6 7 10 13 16 18 18 17 14 11 7 3 0 -0 2 6 11 15 16 10 4 0 -2 -3 -2 -2 -0 0 0 0 0 8 19 30 35 29 21 13 8 6 5 5 6 7
19 18 18 18 18 19 19 21 22 23 23 22 21 20 18 16 15 15 15 16 17 17 14 10 7 7 8 11 14 17 18 18 17 15 11 6 2 -1 -1 2 7 12 14 11 4 0 -1 -2 -3 -2 -1 0 1 1 1 2 12 23 32 35 27 18 11 7 5 5 6 7 8
14 14 14 14 16 19 22 24 28 29 29 27 25 23 20 18 18 17 15 15 17 16 14 10 8 8 9 12 16 19 19 18 16 13 8 4 0 -1 1 4 8 10 8 2 -2 -3 -3 -2 -2 -1 -0 1 1 1 1 4 15 26 34 33 24 16 9 6 5 5 6 7 8
8 8 8 9 13 18 24 29 35 37 37 34 30 27 25 22 21 20 19 16 17 16 13 9 7 7 9 14 19 21 20 17 12 7 3 -0 -1 0 2 5 6 4 -0 -6 -7 -5 -4 -3 -2 -1 1 1 1 1 2 7 20 30 34 31 21 13 8 5 5 5 6 7 8
5 4 4 6 10 16 24 34 41 44 43 38 35 33 31 28 25 24 22 18 16 14 11 7 5 6 11 18 22 22 19 13 6 1 -1 -2 -1 1 2 4 4 1 -3 -7 -7 -5 -3 -2 -1 0 1 2 2 2 5 12 24 32 34 28 18 11 7 5 5 5 6 7 8
4 4 4 5 9 16 26 38 46 48 45 38 33 30 29 28 27 25 22 17 15 14 12 9 7 10 17 23 23 20 15 8 2 -1 -1 -1 -0 1 2 3 4 3 1 -2 -3 -3 -2 -1 0 1 2 2 3 4 7 16 28 34 33 25 15 9 6 5 5 6 7 8 8
4 4 4 5 9 17 28 41 49 48 41 28 19 14 13 15 17 18 17 14 17 20 19 15 15 18 23 24 20 15 9 5 1 0 -0 -0 -0 0 1 2 4 5 5 3 1 -0 -0 0 1 2 3 3 4 6 11 21 31 34 31 21 13 8 6 5 5 6 7 8 9
5 4 4 5 9 17 28 43 51 46 32 14 4 0 -0 1 3 5 8 12 18 21 21 20 22 23 21 16 10 6 3 1 0 -1 -1 -1 -1 -0 0 2 3 5 5 5 3 2 1 2 3 3 4 5 6 9 15 26 33 33 28 18 11 7 6 6 6 7 8 8 8
6 5 4 5 7 14 26 45 53 44 25 6 4 5 7 5 1 -1 -1 3 8 13 18 24 24 20 12 4 0 -2 -3 -2 -2 -2 -2 -2 -1 0 1 3 4 5 6 6 4 3 3 4 4 5 7 8 8 12 20 32 35 31 23 14 9 7 6 6 6 7 8 8 8
7 6 5 4 5 11 24 44 57 51 34 14 14 19 23 22 13 5 -2 -5 -0 7 16 25 24 18 10 2 -1 -3 -3 -3 -2 -1 0 1 2 3 5 6 7 8 8 8 6 5 5 6 7 9 10 10 11 16 25 35 35 28 19 11 8 6 6 6 7 7 8 8 8
8 7 6 4 4 8 18 35 58 66 59 35 20 19 26 33 30 21 12 2 2 6 13 21 25 24 19 13 9 6 3 2 3 4 5 6 7 9 10 11 11 11 10 8 6 7 8 9 11 12 13 12 14 20 29 37 33 25 16 9 7 6 6 6 7 7 8 8 8
9 9 8 6 5 6 11 22 44 63 71 60 31 16 15 28 37 38 32 23 15 12 11 14 18 19 19 17 14 11 9 8 8 9 10 11 12 13 14 14 13 11 8 6 8 10 12 14 15 15 14 12 17 24 32 36 29 21 13 8 7 6 6 6 7 7 8 8 8
9 9 9 9 7 6 7 13 29 47 62 67 46 22 4 2 17 30 38 38 28 19 13 11 11 12 12 12 12 12 12 12 11 11 12 12 13 13 13 13 10 8 6 8 12 15 17 17 16 15 13 14 20 28 34 34 25 17 11 7 6 5 5 6 7 7 8 9 9
10 10 10 10 9 8 8 9 18 31 46 58 51 33 11 -8 -5 6 20 29 25 19 12 8 8 9 9 10 12 14 14 14 13 12 11 10 11 11 11 10 7 7 9 13 17 19 19 17 15 13 14 17 25 31 33 29 21 14 9 7 5 5 5 6 7 8 8 9 9
10 10 11 11 11 10 9 10 13 21 32 45 47 40 25 5 -4 -2 5 13 15 12 8 5 5 7 10 13 16 17 17 16 14 13 11 11 11 11 11 10 9 11 15 19 19 18 17 14 13 13 16 22 29 32 31 24 16 11 8 6 5 5 5 6 7 8 9 9 9
10 11 11 11 11 11 11 11 12 16 23 33 40 40 34 23 12 6 5 7 7 6 4 3 5 8 13 17 19 20 20 19 17 15 14 13 14 14 14 14 15 17 18 18 17 15 13 11 12 15 19 26 31 31 27 19 13 9 7 5 5 4 5 6 7 8 9 9 9
11 11 11 12 12 12 12 12 12 14 17 24 31 35 36 32 24 17 11 7 4 2 0 1 6 11 17 21 22 21 20 19 18 17 17 17 17 17 18 18 18 18 16 15 13 12 11 11 14 18 24 30 31 28 22 15 11 8 6 5 5 4 5 6 7 8 9 10 9
10 11 11 12 12 12 12 12 13 13 14 16 21 25 29 29 25 20 14 8 2 -1 -1 2 9 15 19 21 21 20 19 19 19 19 19 20 20 19 19 18 16 14 12 11 11 11 11 13 17 22 27 30 28 23 17 12 9 7 6 5 4 4 5 5 7 8 9 10 9
9 10 11 12 12 12 12 13 13 13 13 13 14 17 19 21 20 17 13 8 4 3 5 10 16 19 20 19 18 18 18 18 19 20 20 20 19 17 16 14 12 11 10 10 11 12 14 17 21 25 28 29 24 19 14 10 8 7 5 5 4 4 5 5 7 8 9 9 9
8 9 11 12 12 13 13 13 14 14 14 13 13 14 15 16 16 15 14 13 14 16 19 24 24 23 21 19 18 18 18 18 18 18 18 17 15 14 12 11 11 11 11 11 12 14 17 21 24 27 28 26 20 15 12 9 7 6 5 5 5 5 5 5 7 9 9 9 9
8 9 10 11 12 13 13 13 14 14 14 15 15 15 15 15 16 18 19 21 24 26 27 28 26 24 22 20 19 19 18 17 16 16 14 13 12 11 11 11 12 12 12 13 14 17 20 24 26 27 25 21 16 13 10 8 7 6 5 5 5 5 5 6 7 9 10 9 8
Height
5721 5719 5717 5714 5713 5711 5709 5708 5706 5703 5701 5699 5698 5695 5693 5691 5689 5687 5685 5683 5681 5678 5676 5674 5672 5669 5667 5664 5662 5660 5658 5655 5653 5651 5649 5647 5644 5642 5639 5637 5634 5632 5629 5626 5624 5621 5618 5616 5613 5610 5607 5604 5601 5598 5594 5591 5587 5583 5579 5576 5572 5568 5563 5559 5555 5552 5548 5545 5541
5717 5714 5712 5710 5708 5707 5705 5703 5701 5699 5697 5695 5693 5691 5688 5686 5684 5682 5680 5678 5676 5673 5671 5669 5667 5665 5662 5660 5658 5655 5653 5650 5648 5647 5644 5642 5639 5637 5634 5632 5630 5627 5625 5622 5619 5617 5614 5612 5609 5606 5603 5600 5597 5593 5590 5586 5583 5579 5575 5571 5567 5563 5559 5555 5551 5547 5544 5540 5537
5712 5710 5708 5706 5704 5702 5701 5699 5697 5695 5693 5690 5688 5686 5684 5682 5679 5678 5675 5673 5671 5669 5666 5664 5662 5660 5658 5655 5653 5650 5648 5646 5644 5642 5640 5638 5635 5633 5630 5628 5625 5623 5620 5618 5615 5613 5610 5608 5605 5602 5599 5596 5592 5589 5586 5582 5578 5575 5571 5567 5562 5558 5554 5550 5547 5543 5539 5536 5532
5708 5706 5704 5702 5700 5698 5696 5694 5692 5690 5688 5686 5683 5681 5679 5677 5675 5673 5670 5668 5666 5664 5662 5659 5657 5655 5653 5650 5648 5645 5643 5641 5639 5637 5635 5633 5630 5628 5626 5623 5621 5618 5616 5613 5611 5608 5606 5603 5601 5598 5595 5591 5588 5585 5581 5578 5574 5570 5566 5562 5558 5554 5550 5546 5542 5538 5535 5532 5528
5703 5701 5699 5698 5695 5693 5691 5689 5688 5685 5683 5681 5679 5677 5675 5673 5670 5668 5665 5663 5661 5659 5657 5654 5652 5650 5648 5646 5643 5641 5638 5637 5635 5633 5631 5628 5626 5623 5621 5619 5616 5614 5612 5609 5607 5604 5602 5599 5596 5593 5591 5587 5584 5581 5577 5573 5570 5566 5562 5558 5553 5549 5545 5541 5538 5534 5531 5527 5524
5698 5696 5694 5693 5691 5688 5686 5684 5683 5681 5678 5676 5674 5673 5670 5668 5665 5663 5660 5658 5656 5654 5652 5650 5648 5645 5643 5641 5638 5636 5634 5632 5630 5628 5626 5624 5621 5619 5617 5614 5612 5610 5607 5605 5603 5600 5598 5595 5592 5589 5586 5583 5580 5576 5573 5569 5566 5562 5557 5553 5549 5545 5541 5537 5533 5530 5527 5523 5519
5693 5691 5689 5688 5686 5684 5682 5679 5678 5676 5673 5672 5670 5668 5665 5663 5660 5658 5655 5653 5651 5649 5647 5645 5643 5641 5638 5636 5633 5631 5629 5628 5626 5624 5622 5619 5617 5614 5612 5610 5607 5605 5603 5601 5598 5596 5594 5591 5588 5585 5582 5579 5576 5572 5569 5565 5561 5557 5553 5549 5544 5541 5537 5533 5529 5526 5523 5519 5515
5689 5687 5685 5683 5681 5678 5677 5674 5673 5670 5668 5667 5665 5663 5661 5658 5655 5653 5650 5648 5646 5644 5642 5640 5638 5636 5633 5631 5628 5626 5625 5623 5621 5619 5617 5615 5613 5610 5608 5605 5603 5601 5599 5597 5594 5592 5589 5587 5584 5581 5578 5575 5572 5568 5565 5561 5557 5553 5549 5545 5540 5536 5533 5529 5525 5522 5518 5515 5511
5685 5683 5680 5678 5676 5673 5672 5669 5668 5666 5663 5662 5660 5658 5656 5653 5650 5648 5645 5643 5641 5639 5637 5635 5633 5631 5628 5626 5623 5622 5620 5618 5616 5614 5612 5610 5608 5605 5603 5601 5599 5597 5594 5593 5590 5588 5585 5583 5580 5577 5574 5571 5567 5564 5560 5557 5553 5548 5544 5540 5536 5532 5528 5524 5521 5518 5514 5511 5507
5681 5678 5676 5673 5671 5669 5667 5664 5663 5661 5658 5656 5654 5653 5650 5648 5646 5643 5640 5638 5635 5633 5632 5630 5628 5626 5623 5621 5618 5617 5615 5613 5612 5610 5608 5605 5603 5601 5599 5597 5594 5593 5590 5588 5586 5584 5581 5579 5576 5573 5569 5566 5563 5560 5556 5553 5548 5544 5540 5536 5532 5528 5523 5520 5517 5514 5510 5507 5503
5676 5674 5671 5669 5667 5664 5662 5660 5658 5656 5653 5651 5649 5647 5645 5643 5641 5638 5635 5633 5631 5628 5627 5625 5623 5620 5618 5616 5614 5612 5610 5609 5607 5605 5603 5601 5598 5596 5594 5592 5590 5588 5586 5584 5582 5580 5577 5575 5572 5568 5565 5562 5559 5556 5552 5548 5544 5540 5536 5532 5528 5523 5519 5516 5513 5509 5506 5503 5499
5672 5669 5667 5665 5662 5660 5658 5655 5653 5651 5649 5646 5644 5642 5640 5638 5636 5633 5630 5628 5626 5623 5622 5620 5618 5615 5613 5611 5609 5607 5606 5604 5602 5600 5598 5596 5594 5592 5590 5588 5586 5584 5582 5580 5578 5576 5573 5570 5568 5564 5561 5558 5555 5552 5548 5544 5540 5536 5532 5528 5523 5520 5516 5512 5508 5505 5502 5499 5496
5667 5665 5663 5660 5658 5656 5653 5651 5648 5646 5644 5642 5639 5637 5635 5633 5630 5628 5625 5623 5620 5618 5616 5614 5612 5610 5608 5606 5604 5602 5601 5599 5598 5596 5593 5592 5589 5588 5585 5583 5582 5580 5578 5576 5574 5572 5569 5566 5563 5560 5557 5554 5551 5547 5544 5540 5536 5532 5528 5523 5519 5516 5512 5508 5504 5501 5498 5495 5492
5663 5661 5658 5656 5654 5651 5649 5647 5644 5642 5639 5637 5634 5632 5629 5627 5625 5623 5620 5618 5615 5613 5611 5609 5607 5605 5603 5601 5599 5598 5596 5595 5593 5591 5589 5587 5585 5583 5581 5579 5577 5576 5574 5572 5570 5568 5565 5562 5559 5556 5553 5550 5547 5543 5540 5536 5532 5528 5524 5520 5516 5512 5508 5504 5501 5498 5494 5491 5488
5659 5657 5654 5652 5650 5647 5645 5642 5639 5637 5634 5631 5629 5627 5624 5622 5620 5618 5615 5613 5610 5608 5606 5604 5602 5600 5598 5597 5595 5593 5591 5590 5588 5586 5585 5583 5581 5579 5577 5575 5573 5572 5570 5568 5566 5563 5561 5558 5555 5552 5548 5545 5542 5539 5535 5532 5528 5524 5519 5516 5512 5508 5504 5500 5497 5494 5491 5488 5484
5655 5652 5650 5648 5645 5643 5640 5638 5635 5632 5629 5627 5624 5621 5619 5617 5615 5612 5610 5608 5605 5603 5601 5599 5597 5595 5593 5592 5590 5588 5587 5585 5584 5582 5580 5579 5577 5575 5573 5571 5569 5568 5566 5564 5562 5559 5557 5554 5551 5548 5544 5541 5538 5535 5531 5528 5524 5520 5515 5511 5508 5504 5500 5496 5493 5490 5487 5484 5481
5649 5647 5645 5642 5640 5638 5635 5632 5630 5627 5624 5622 5619 5616 5614 5612 5609 5607 5605 5602 5600 5598 5596 5594 5593 5591 5589 5588 5586 5584 5583 5581 5579 5578 5576 5574 5573 5571 5569 5567 5565 5563 5562 5560 5558 5555 5553 5549 5546 5543 5540 5537 5534 5530 5527 5523 5519 5515 5512 5508 5503 5500 5496 5493 5489 5486 5483 5480 5477
5644 5642 5639 5637 5635 5632 5630 5627 5624 5622 5619 5616 5614 5611 5609 5607 5604 5602 5599 5597 5595 5593 5591 5589 5588 5587 5585 5583 5582 5580 5578 5577 5575 5574 5572 5571 5569 5567 5565 5563 5561 5559 5558 5556 5553 5551 5548 5545 5542 5539 5536 5533 5530 5526 5523 5519 5515 5511 5508 5503 5500 5496 5493 5489 5486 5483 5480 5477 5473
5639 5637 5634 5632 5629 5627 5624 5621 5618 5616 5613 5610 5608 5606 5603 5601 5599 5597 5594 5592 5590 5588 5586 5585 5583 5582 5581 5579 5577 5576 5574 5573 5571 5570 5568 5567 5565 5563 5561 5559 5557 5555 5553 5552 5549 5547 5544 5541 5538 5535 5532 5528 5525 5522 5519 5515 5512 5508 5503 5500 5496 5492 5489 5486 5483 5479 5476 5473 5470
5634 5632 5629 5627 5624 5621 5618 5615 5612 5609 5606 5604 5602 5600 5598 5596 5593 5591 5589 5587 5585 5583 5582 5580 5579 5578 5576 5575 5573 5571 5570 5568 5567 5566 5564 5563 5561 5559 5557 5555 5553 5552 5550 5548 5545 5543 5539 5536 5533 5530 5528 5524 5521 5518 5515 5511 5508 5503 5500 5496 5492 5488 5485 5482 5479 5476 5473 5470 5466
5630 5627 5624 5621 5618 5615 5613 5609 5606 5603 5600 5597 5595 5593 5591 5590 5588 5586 5584 5582 5580 5578 5577 5576 5574 5573 5572 5570 5569 5567 5566 5565 5563 5562 5561 5559 5557 5555 5553 5551 5549 5548 5546 5544 5541 5538 5535 5532 5529 5526 5523 5520 5517 5514 5511 5508 5503 5500 5496 5492 5488 5485 5482 5478 5475 5472 5469 5466 5463
5626 5623 5620 5617 5613 5610 5607 5603 5600 5596 5593 5590 5588 5586 5585 5584 5583 5581 5579 5577 5575 5574 5573 5571 5570 5569 5568 5566 5564 5563 5562 5561 5560 5559 5558 5556 5554 5552 5550 5548 5546 5544 5542 5540 5537 5533 5531 5528 5525 5522 5519 5516 5513 5510 5507 5503 5500 5496 5492 5488 5485 5482 5478 5475 5472 5469 5466 5463 5459
5622 5618 5615 5612 5609 5605 5601 5597 5593 5589 5586 5583 5581 5580 5579 5578 5577 5576 5574 5573 5571 5570 5568 5567 5566 5565 5563 5562 5560 5559 5558 5557 5557 5556 5554 5552 5550 5548 5546 5544 5542 5540 5538 5535 5533 5529 5527 5523 5521 5518 5515 5512 5509 5506 5503 5500 5496 5492 5488 5485 5481 5478 5475 5472 5469 5466 5463 5459 5456
5617 5614 5611 5607 5604 5600 5595 5591 5587 5583 5579 5577 5575 5574 5573 5572 5571 5570 5569 5568 5567 5565 5564 5563 5562 5560 5559 5558 5556 5555 5555 5554 5553 5552 5551 5548 5546 5544 5542 5540 5538 5536 5534 5531 5528 5525 5523 5520 5517 5514 5511 5508 5505 5502 5499 5496 5492 5488 5485 5481 5478 5474 5471 5468 5465 5463 5459 5456 5453
5612 5608 5605 5602 5598 5593 5589 5584 5580 5576 5573 5571 5569 5568 5567 5567 5566 5565 5564 5563 5562 5561 5560 5558 5557 5556 5555 5553 5553 5552 5552 5551 5550 5548 5546 5544 5542 5540 5538 5536 5534 5532 5529 5527 5524 5522 5519 5516 5513 5510 5507 5504 5501 5498 5495 5492 5488 5485 5481 5478 5475 5471 5468 5465 5462 5459 5456 5453 5449
5607 5603 5600 5596 5592 5587 5583 5578 5573 5569 5567 5565 5564 5563 5563 5562 5561 5560 5559 5558 5557 5556 5555 5554 5553 5552 5551 5550 5550 5549 5548 5547 5545 5544 5542 5540 5538 5535 5533 5531 5529 5527 5525 5523 5521 5518 5515 5512 5509 5506 5503 5500 5497 5494 5491 5488 5485 5481 5478 5474 5471 5468 5465 5462 5459 5456 5452 5449 5445
5602 5598 5594 5590 5586 5582 5577 5572 5567 5563 5561 5560 5559 5559 5558 5558 5557 5556 5555 5554 5553 5552 5551 5550 5549 5548 5548 5548 5547 5546 5545 5543 5541 5539 5537 5535 5533 5531 5529 5527 5525 5523 5521 5519 5517 5514 5511 5508 5505 5502 5499 5496 5493 5490 5487 5484 5481 5478 5474 5471 5468 5465 5462 5459 5456 5453 5449 5445 5442
5597 5593 5589 5585 5581 5576 5571 5566 5561 5557 5556 5555 5555 5555 5554 5554 5553 5552 5551 5550 5549 5548 5547 5546 5545 5545 5545 5544 5544 5543 5541 5539 5537 5535 5533 5531 5528 5527 5524 5522 5520 5518 5517 5515 5513 5510 5507 5503 5500 5497 5495 5492 5489 5487 5484 5480 5477 5473 5470 5467 5464 5461 5458 5456 5453 5449 5446 5442 5438
5592 5588 5585 5581 5576 5572 5566 5561 5556 5553 5552 5552 5551 5550 5550 5549 5548 5548 5547 5547 5546 5545 5543 5543 5542 5542 5541 5541 5539 5538 5536 5534 5532 5530 5528 5526 5524 5522 5520 5518 5516 5514 5513 5511 5508 5505 5502 5499 5496 5493 5490 5488 5486 5483 5480 5477 5473 5470 5467 5464 5461 5458 5455 5453 5449 5446 5443 5440 5436
5588 5584 5581 5577 5573 5568 5563 5558 5553 5551 5550 5549 5547 5546 5545 5544 5544 5543 5543 5543 5542 5541 5540 5539 5538 5538 5537 5536 5535 5533 5532 5530 5528 5526 5524 5522 5520 5518 5515 5513 5511 5509 5508 5507 5504 5501 5498 5494 5491 5488 5486 5484 5481 5479 5477 5474 5470 5467 5464 5461 5458 5455 5453 5450 5447 5444 5441 5437 5434
5584 5581 5577 5573 5569 5565 5560 5556 5551 5548 5546 5545 5544 5543 5542 5541 5540 5539 5539 5538 5538 5537 5536 5534 5534 5533 5533 5532 5530 5529 5528 5526 5524 5522 5519 5518 5515 5513 5511 5508 5507 5505 5504 5503 5500 5497 5493 5489 5487 5484 5482 5479 5477 5475 5473 5470 5467 5464 5461 5458 5455 5453 5450 5447 5444 5441 5438 5435 5432
5580 5577 5573 5570 5566 5562 5558 5554 5549 5544 5542 5540 5540 5540 5539 5538 5537 5536 5535 5534 5534 5533 5532 5530 5529 5528 5528 5527 5526 5524 5523 5521 5519 5517 5515 5513 5510 5508 5506 5504 5502 5501 5499 5498 5495 5492 5488 5485 5482 5480 5478 5475 5473 5471 5469 5467 5463 5461 5458 5455 5452 5449 5447 5444 5441 5438 5435 5432 5429
5577 5573 5570 5566 5563 5559 5556 5552 5547 5543 5540 5538 5537 5536 5536 5535 5533 5533 5532 5531 5530 5529 5528 5526 5525 5524 5523 5522 5521 5519 5518 5517 5514 5512 5510 5508 5505 5503 5501 5499 5498 5497 5495 5493 5490 5487 5483 5480 5478 5476 5474 5472 5469 5467 5465 5463 5460 5457 5455 5452 5449 5447 5444 5441 5438 5436 5433 5429 5426
5573 5570 5567 5563 5560 5556 5553 5549 5545 5541 5538 5535 5533 5533 5532 5531 5530 5529 5528 5527 5526 5525 5524 5522 5521 5520 5519 5518 5517 5515 5514 5512 5510 5508 5505 5503 5501 5499 5497 5495 5493 5493 5491 5489 5485 5481 5478 5476 5474 5472 5470 5468 5465 5463 5461 5459 5456 5454 5451 5449 5446 5443 5441 5438 5436 5433 5430 5427 5423
5570 5567 5563 5560 5557 5553 5550 5547 5543 5540 5536 5533 5531 5529 5528 5528 5527 5526 5525 5523 5522 5521 5520 5519 5518 5516 5515 5514 5513 5511 5509 5508 5505 5503 5501 5498 5496 5494 5493 5491 5489 5488 5486 5483 5479 5476 5474 5473 5470 5468 5466 5464 5462 5460 5458 5455 5453 5451 5448 5446 5443 5440 5438 5435 5433 5430 5427 5424 5420
5567 5563 5560 5557 5553 5550 5547 5543 5540 5537 5534 5531 5528 5527 5525 5524 5524 5523 5521 5520 5519 5518 5517 5515 5514 5513 5511 5509 5508 5506 5504 5503 5500 5498 5496 5494 5492 5490 5488 5487 5485 5483 5481 5478 5475 5473 5471 5469 5467 5464 5462 5460 5458 5456 5454 5452 5450 5447 5445 5442 5440 5438 5435 5432 5430 5427 5424 5421 5418
5564 5560 5557 5554 5551 5547 5544 5541 5538 5535 5532 5529 5527 5525 5523 5522 5521 5519 5518 5517 5516 5514 5513 5512 5510 5508 5507 5505 5503 5501 5499 5498 5496 5494 5492 5490 5488 5486 5484 5483 5481 5479 5476 5473 5471 5469 5468 5465 5463 5461 5459 5457 5455 5453 5451 5449 5447 5444 5442 5439 5437 5434 5432 5429 5427 5424 5421 5418 5415
5561 5558 5554 5551 5548 5544 5541 5538 5535 5532 5529 5527 5525 5523 5521 5520 5518 5517 5515 5514 5513 5511 5509 5508 5506 5504 5503 5500 5498 5497 5495 5493 5491 5490 5488 5486 5484 5482 5480 5478 5477 5474 5472 5470 5468 5466 5464 5462 5459 5457 5455 5453 5452 5450 5448 5446 5443 5441 5439 5436 5434 5432 5429 5426 5424 5421 5418 5415 5412
5558 5554 5551 5548 5545 5542 5538 5535 5533 5530 5527 5525 5523 5521 5519 5517 5516 5514 5513 5511 5509 5508 5506 5504 5502 5500 5499 5497 5495 5493 5491 5489 5488 5486 5484 5482 5480 5478 5476 5474 5473 5470 5468 5467 5464 5463 5460 5458 5456 5454 5452 5450 5448 5447 5445 5443 5440 5438 5436 5433 5431 5428 5426 5423 5421 5418 5415 5412 5409
5554 5552 5548 5545 5542 5539 5536 5533 5530 5527 5525 5522 5520 5518 5516 5515 5513 5511 5509 5508 5506 5504 5502 5501 5499 5497 5495 5493 5492 5490 5488 5486 5484 5482 5480 5478 5476 5474 5473 5471 5469 5467 5465 5463 5461 5459 5457 5454 5453 5451 5449 5447 5445 5444 5442 5439 5437 5435 5433 5431 5428 5426 5423 5421 5418 5415 5412 5409 5406
5551 5548 5545 5542 5539 5536 5533 5530 5527 5525 5522 5520 5517 5515 5513 5512 5510 5508 5506 5504 5503 5501 5499 5498 5496 5494 5492 5490 5488 5486 5484 5482 5480 5478 5476 5474 5473 5471 5469 5467 5466 5464 5462 5460 5458 5455 5453 5451 5449 5448 5446 5444 5443 5441 5439 5437 5434 5432 5430 5428 5426 5423 5421 5418 5415 5412 5409 5407 5403